Simultaneous Nadir Overpasses (SNOs) Predictions

Prediction of SNOs between AQUA and METOP-B Satellite Orbit:

Table of predicted SNOs for the next 14.0 days since TLE Epoch: 11/22/2019
Index Date (AQUA) Time (AQUA) Lat,Lon (AQUA) SZA (AQUA ) Date (METOP-B) Time (METOP-B) Lat,Lon (METOP-B) SZA (METOP-B ) Distance(km) Time Diff (sec)
1 11/24/2019 11:17:15 73.73, 5.07 94.19 11/24/2019 11:16:15 73.75, 4.98 94.21 3.42 60
2 11/24/2019 12:06:43 -73.85, 172.45 85.69 11/24/2019 12:06:55 -73.83, 172.50 85.71 2.80 12
3 11/24/2019 12:56:18 74.25, -20.82 94.73 11/24/2019 12:57:27 74.23, -19.19 94.69 49.17 69
4 11/27/2019 06:51:30 73.75, 71.47 94.75 11/27/2019 06:50:39 73.78, 71.46 94.79 3.47 51
5 11/27/2019 07:40:57 -73.82,-121.03 85.18 11/27/2019 07:41:20 -73.81,-121.15 85.18 3.56 23
6 11/30/2019 02:25:44 73.77, 137.86 95.27 11/30/2019 02:25:03 73.76, 137.81 95.26 2.13 41
7 11/30/2019 03:15:11 -73.84, -54.65 84.66 11/30/2019 03:15:43 -73.84, -54.67 84.66 0.72 32
8 12/02/2019 21:59:59 73.80,-155.76 95.74 12/02/2019 21:59:27 73.79,-155.71 95.73 2.15 32
9 12/02/2019 22:49:26 -73.87, 11.72 84.18 12/02/2019 22:50:07 -73.87, 11.81 84.19 2.68 41
10 12/05/2019 16:44:32 -73.08, 104.56 84.62 12/05/2019 16:43:27 -73.02, 101.62 84.63 95.49 65
11 12/05/2019 17:34:13 73.79, -89.28 96.11 12/05/2019 17:33:52 73.77, -89.36 96.10 3.02 21
12 12/05/2019 18:23:40 -73.86, 78.20 83.81 12/05/2019 18:24:32 -73.85, 78.17 83.82 1.36 52




NCC Satellite Simultaneous Nadir Overpasses (SNOs) Prediction Service
